Flag for Germany Weather past 2 weeks in Ravensburg, Baden-Württemberg, Germany

Now
55 °F

Cool.


Feels Like: 55 °F
Forecast: 52 / 75 °F
Wind: 2 mph from North

Location: Friedrichshafen Airport

Current Time: Sep 17, 2014 at 5:49:03 AM

Latest Report: Sep 17, 2014 at 4:50 AM


Visibility: 0 mi

Pressure: 29.95 "Hg

Humidity: 94%

Dew point: 54 °F

Location of RavensburgLocation

Historic Weather in Ravensburg — Graph

°F

Ravensburg temperature yesterday

Maximum temperature yesterday: 73 °F (at 3:50 PM)
Minimum temperature yesterday: 52 °F (at 4:59 AM)
Average temperature yesterday: 61 °F

Past Weeks' High & Low Weather Summary

 TemperatureHumidityPressure
High79 °F (Sep 8, 3:50 PM)94% (Sep 2, 6:50 AM)30.15 "Hg (Sep 2, 6:50 AM)
Low48 °F (Sep 12, 6:20 AM)42% (Sep 7, 5:20 PM)29.89 "Hg (Sep 6, 4:20 PM)
Average61 °F76%30.03 "Hg
* Reported Sep 2 4:20 AM — Sep 17 4:50 AM, Ravensburg, Weather by CustomWeather, © 2014

Note: Actual official high and low records may vary slightly from our data, if they occured in-between our weather recording intervals... More about our weather records

Advertising

Ravensburg weather history for previous 24 hours

 ConditionsComfort  
Time TempWeatherWind HumidityBarometerVisibility
4:50 AM
Sep 17
55 °FCool.2 mph94%29.95 "Hg0 mi
4:20 AM55 °FCool.5 mph94%29.95 "Hg1 mi
3:55 AM55 °FCool.6 mph88%29.95 "Hg1 mi
3:20 AM55 °FFog.5 mph88%29.95 "Hg2 mi
2:50 AM55 °FFog.6 mph88%29.95 "Hg2 mi
2:20 AM57 °FFog.5 mph88%29.95 "Hg3 mi
1:50 AM57 °FCool.6 mph88%29.95 "Hg3 mi
1:20 AM59 °FCool.8 mph82%29.95 "Hg4 mi
12:50 AM59 °FCool.7 mph82%29.95 "Hg4 mi
12:20 AM59 °FCool.7 mph82%29.95 "Hg6 mi
11:50 PM
Sep 16
59 °FCool.6 mph82%29.95 "HgN/A
11:20 PM59 °FCool.5 mph88%29.95 "HgN/A
10:50 PM59 °FCool.7 mph88%29.95 "HgN/A
10:20 PM61 °FClear.6 mph83%29.98 "Hg10 mi
9:50 PM63 °FClear.5 mph77%29.98 "Hg10 mi
9:20 PM63 °FClear.6 mph77%29.98 "Hg10 mi
8:50 PM64 °FClear.6 mph78%29.95 "Hg10 mi
8:20 PM64 °FSunny.3 mph78%29.95 "Hg10 mi
7:50 PM66 °FSunny.3 mph73%29.95 "Hg10 mi
7:20 PM68 °FSunny.3 mph69%29.95 "Hg10 mi
6:20 PM72 °FPassing clouds.3 mph61%29.95 "HgN/A
5:50 PM73 °FPassing clouds.3 mph50%29.95 "HgN/A
5:20 PM73 °FPassing clouds.2 mph53%29.95 "HgN/A
4:50 PM73 °FPassing clouds.3 mph53%29.95 "HgN/A
4:20 PM73 °FPassing clouds.3 mph53%29.95 "HgN/A
3:50 PM73 °FSunny.3 mph53%29.95 "Hg10 mi
3:20 PM72 °FSunny.3 mph53%29.98 "Hg10 mi
2:50 PM72 °FSunny.2 mph57%29.98 "Hg10 mi
2:20 PM70 °FPassing clouds.2 mph60%29.98 "HgN/A
1:50 PM68 °FPassing clouds.3 mph69%30.01 "HgN/A
1:20 PM66 °FScattered clouds.3 mph73%30.01 "HgN/A
12:50 PM63 °FLow clouds.2 mph77%30.01 "HgN/A
12:20 PM61 °FLow clouds.3 mph83%30.04 "Hg4 mi
11:50 AM59 °FLow clouds.1 mph94%30.04 "Hg4 mi
11:20 AM57 °FFog.2 mph94%30.04 "Hg3 mi
10:50 AM57 °FFog.2 mph94%30.04 "Hg2 mi
10:20 AM57 °FFog.2 mph88%30.04 "Hg1 mi
9:50 AM55 °FFog.5 mph94%30.04 "Hg1 mi
9:20 AM55 °FFog.5 mph88%30.04 "Hg1 mi
8:50 AM54 °FCool.2 mph94%30.04 "Hg1 mi
8:20 AM54 °FFog.1 mph94%30.04 "Hg1 mi
7:50 AM54 °FFog.3 mph94%30.01 "Hg1 mi
7:20 AM54 °FFog.2 mph88%30.01 "Hg1 mi
6:50 AM54 °FFog.2 mph88%30.01 "Hg1 mi
6:20 AM54 °FFog.6 mph88%30.01 "Hg2 mi
5:51 AM54 °FFog.5 mph88%30.01 "Hg2 mi
5:20 AM54 °FClear.5 mph88%30.01 "Hg3 mi
Weather by CustomWeather, © 2014

See weather overviewHow to use our weather pages